G7NPW-1 Weather Reports


time (UTC)temp
C
wind
direction
speed
KPH
gust
KPH
rain 1hr
cm
rain 24hr
cm
rain mn
cm
humidity
%
barometer
mb
20260504210504 10 0 1.6 4.8 0.00 0.00 0.00 87 1015.9
20260504210004 10 0 1.6 4.8 0.00 0.00 0.00 87 1015.9
20260504205007 11 100 4.8 4.8 0.00 0.00 0.00 81 1014.9
20260504204504 11 100 4.8 4.8 0.00 0.00 0.00 81 1014.9
20260504202503 11 100 4.8 4.8 0.00 0.00 0.00 81 1014.9
20260504202007 11 100 4.8 4.8 0.00 0.00 0.00 81 1014.9
20260504201504 11 100 4.8 4.8 0.00 0.00 0.00 81 1014.9
20260504201006 11 100 4.8 4.8 0.00 0.00 0.00 81 1014.9
20260504193504 11 90 9.7 9.7 0.00 0.00 0.00 81 1014.9
20260504192504 11 90 9.7 9.7 0.00 0.00 0.00 81 1014.9
20260504190504 11 90 9.7 9.7 0.00 0.00 0.00 81 1014.9
20260504183504 12 90 4.8 4.8 0.00 0.00 0.00 76 1014.9
20260504183007 12 90 4.8 4.8 0.00 0.00 0.00 76 1014.9
20260504182007 12 90 4.8 4.8 0.00 0.00 0.00 76 1014.9
20260504180504 12 90 4.8 4.8 0.00 0.00 0.00 76 1014.9
20260504180004 12 90 4.8 4.8 0.00 0.00 0.00 76 1014.9
20260504175504 12 90 4.8 4.8 0.00 0.00 0.00 76 1014.9
20260504173504 12 90 4.8 4.8 0.00 0.00 0.00 76 1014.9
20260504173007 12 90 4.8 4.8 0.00 0.00 0.00 76 1014.9
20260504172503 12 90 4.8 4.8 0.00 0.00 0.00 76 1014.9
20260504171504 12 90 4.8 4.8 0.00 0.00 0.00 76 1014.9
20260504171007 12 90 4.8 4.8 0.00 0.00 0.00 76 1014.9
20260504151007 12 110 9.7 9.7 0.00 0.00 0.00 76 1014.9
20260504150504 12 110 9.7 9.7 0.00 0.00 0.00 76 1014.9
20260504141008 12 60 8.0 8.0 0.00 0.00 0.00 71 1015.9
20260504082008 8 40 11.3 11.3 0.00 0.00 0.00 93 1014.9
20260504081504 8 40 11.3 11.3 0.00 0.00 0.00 93 1014.9